DELTA 1 DEB, 10208

Orbit data source: Space-Track

DELTA 1 DEB, 10208 is space debris in LEO originally from a launch on Thu, 14 Jul 1977 UTC launched from the Air Force Eastern Test Range (AFETR). Debris objects in space refer to the collection of defunct objects orbiting the Earth. Examples of debris include non-operational satellites, rocket bodies, and fragments generated from explosions, collisions, or faulty payload assembly.

Loading next visibility...
Identifier
10208, 1977-065AM
Orbit
LEO
Country
Flag of USUS
Related business
Manufacturer
Unknown
Mission
Spacecraft
Bus & Motor
Unknown
Mass
Unknown
Launch date (UTC)
1977-07-14 (48 years ago)
Launch vehicle
Unknown
Launch site
Air Force Eastern Test Range (AFETR)
Object type
Payload
Rocket body
Debris
Shape & HBR
Unknown
Radar Cross Section
Small (<0.1 m²)

Expand to show TLE details & history
Last TLE update: 16 hours ago

TLE from 16 hours ago
0 DELTA 1 DEB
1 10208U 77065AM  25260.16083763  .00005180  00000-0  65187-3 0  9999
2 10208  28.9344 238.8426 0342213 181.9919 177.9301 14.46496510406007
Epoch: 2025-09-17T03:51Z
TLE epoch observation values (Epoch: 2025-09-17T03:51:36.371Z)
Latitude
0.00003°
Longitude
-175.39965°
Altitude
978.746 km
Speed
7.238 km/s
True Right ascension
15h 55m 22s
True Declination
0° 00' 00"
Sunlit
Object was in daylight at epoch
Visualization orbit readout
Latitude
Unknown
Longitude
Unknown
Altitude
Unknown
Speed
Unknown
Apparent Right ascension
Unknown
Apparent Declination
Unknown
Sunlit
N/A
Visualization observer readout
Local Sidereal Time
12:42:15
Azimuth
Unknown
Elevation
Unknown
Doppler factor
Unknown
Orbital elements
Apogee altitude
984.775 km
Perigee altitude
497.513 km
Semi-major axis
7,119.281 km
Eccentricity
0.03422
Inclination
28.9344°
RAAN
238.8426°
Arg. of periapsis
181.9919°
True anomaly
178.06592°
Mean anomaly
177.9301°
Eccentric anomaly
177.99858°
Mean motion
3.61317 °/min
Orbital period
99.64 mins
BSTAR
0.00065187
Loading maneuver chart data...
Computing Atmospheric mass density...
Loading historical data...
Loading historical data...
Loading historical data...
Loading historical data...
Loading historical data...
Loading historical data...
Loading historical data...

Documentation

Showing up to 5 results
|